SCP
0 0 0 0 0 0 0 0 0 1 1 1 1 1 1 1 1 1 1 1 1 1 1 1 1 1 1 1 1 1 1 1 1 1 1 1 1 1 1 1 1 1 1 2
0 0 0 0 0 0 0 0 0 1 1 1 1 1 1 1 1 1 1 1 1 1 1 1 1 1 1 1 1 1 1 1 1 1 1 1 1 1 1 1 1 1 1 1
0 0 0 0 0 0 0 0 0 1 1 0 0 0 1 0 0 0 0 1 1 1 0 0 0 0 0 0 0 0 1 1 1 1 1 1 1 1 1 1 1 1 1 1
0 0 0 0 0 0 0 0 0 1 0 0 0 0 1 1 0 0 0 0 0 0 0 0 0 0 0 0 0 0 0 0 0 0 0 0 0 1 1 1 0 0 0 0
0 0 0 0 0 0 0 0 0 0 0 0 0 0 1 1 1 1 1 0 0 0 0 0 0 0 0 0 0 0 0 0 0 0 0 0 0 0 0 0 0 0 0 0
0 0 0 0 0 0 0 0 0 0 0 0 0 1 1 1 1 1 1 0 0 0 0 0 0 0 0 0 0 0 0 0 0 0 0 0 0 0 0 0 0 0 0 0
0 0 0 0 0 0 0 0 0 0 0 0 1 1 1 1 1 1 0 0 0 0 0 0 0 0 0 0 0 0 0 0 0 0 0 0 0 0 0 0 0 0 0 0
0 0 0 0 0 0 0 0 0 0 0 0 1 1 1 1 1 0 0 0 0 0 0 0 0 0 0 0 0 0 0 0 0 0 0 0 0 0 0 0 0 0 0 0
0 0 0 0 0 0 0 0 0 0 0 0 1 1 1 1 0 0 0 0 0 0 0 0 0 0 0 0 0 0 0 0 0 0 0 0 0 0 0 0 0 0 0 0
0 0 0 0 0 0 0 0 0 0 0 0 0 1 1 1 0 0 0 0 0 0 0 0 0 0 0 0 0 0 0 0 0 0 0 0 0 0 0 0 0 0 0 0
0 0 0 0 0 0 0 0 0 0 0 0 0 0 0 0 0 0 0 0 0 0 0 0 0 0 0 0 0 0 0 0 0 0 0 0 0 0 0 0 0 0 0 1
0 0 0 0 0 0 0 0 0 0 0 0 0 0 0 0 0 0 0 0 0 0 0 0 0 0 0 0 0 0 0 0 0 0 0 0 0 0 0 0 0 0 0 1
0 0 0 0 0 0 0 0 0 0 0 0 0 0 0 0 0 0 0 0 0 0 0 0 0 0 0 0 0 0 0 0 0 0 0 0 0 0 0 0 0 0 0 1
0 0 0 0 0 0 0 0 0 0 0 0 0 0 0 0 0 0 0 0 0 0 0 0 0 0 0 0 0 0 0 0 0 0 0 0 0 0 0 0 0 0 0 1
0 0 0 0 0 0 0 0 0 0 0 0 0 0 0 0 0 0 0 0 0 0 0 0 0 0 0 0 0 0 0 0 0 0 0 0 0 0 0 0 0 0 0 1
0 0 0 0 0 0 0 0 0 0 0 0 0 0 0 0 0 0 0 0 0 0 0 0 0 0 0 0 0 0 0 0 0 0 0 0 0 0 0 0 0 0 0 0
0 0 0 0 0 0 0 0 0 0 0 0 0 0 0 0 0 0 0 0 0 0 0 0 0 0 0 0 0 0 0 0 0 0 0 0 0 0 0 0 0 0 0 0
0 0 0 0 0 0 0 0 0 0 0 0 0 0 0 0 0 0 0 0 0 0 0 0 0 0 0 0 0 0 0 0 0 0 0 0 0 0 0 0 0 0 0 0
0 0 0 0 0 0 0 0 0 0 0 0 0 0 0 0 0 0 0 0 0 0 0 0 0 0 0 0 0 0 0 0 0 0 0 0 0 0 0 0 0 0 0 0
0 0 0 0 0 0 0 0 0 0 0 0 0 0 0 0 0 0 0 0 0 0 0 0 0 0 0 0 0 0 0 0 0 0 0 0 0 0 0 0 0 0 0 0
0 0 0 0 0 0 0 0 0 0 0 0 0 0 0 0 0 0 0 0 0 0 0 0 0 0 0 0 0 0 0 0 0 0 0 0 0 0 0 0 0 0 0 0
0 0 0 0 0 0 0 0 0 0 0 0 0 0 0 0 0 0 0 0 0 0 0 0 0 0 0 0 0 0 0 0 0 0 0 0 0 0 0 0 0 0 0 0
0 0 0 0 0 0 0 0 0 0 0 0 0 0 0 0 0 0 0 0 0 0 0 0 0 0 0 0 0 0 0 0 0 0 0 0 0 0 0 0 0 0 0 0
0 0 0 0 0 0 0 0 0 0 0 0 0 0 0 0 0 0 0 0 0 0 0 0 0 0 0 0 0 0 0 0 0 0 0 0 0 0 0 0 0 0 0 0
0 0 0 0 0 0 0 0 0 0 0 0 0 0 0 0 0 0 0 0 0 0 0 0 0 0 0 0 0 0 0 0 0 0 0 0 0 0 0 0 0 0 0 0
0 0 0 0 0 0 0 0 0 0 0 0 0 0 0 0 0 0 0 0 0 0 0 0 0 0 0 0 0 0 0 0 0 0 0 0 0 0 0 0 0 0 0 0
Wind_Speed
4 7 2 3 4 4 3 3 2 8 5 7 11 10 8 7 7 8 8 8 8 9 9 8 8 8 8 7 7 7 8 8 7 7 8 8 7 6 5 4 4 4 5 4
6 3 4 3 2 4 5 4 5 8 6 5 9 10 8 7 7 7 7 7 8 8 8 7 7 7 8 8 8 8 9 9 9 8 7 7 8 7 5 5 5 6 6 5
5 3 2 4 4 6 5 4 2 8 8 9 11 9 8 9 8 7 6 6 6 5 5 5 6 6 7 8 9 8 9 9 9 10 8 8 7 6 5 6 5 7 7 6
4 1 4 7 5 7 4 2 1 10 11 8 10 5 9 8 7 6 6 5 4 2 3 4 6 8 9 9 9 9 10 10 9 10 10 11 9 9 9 7 6 7 6 6
3 4 5 5 3 6 4 2 3 9 9 5 8 5 9 8 6 6 4 3 1 1 4 6 8 9 10 11 10 10 10 10 11 11 11 11 11 10 8 8 8 7 6 5
2 1 3 5 3 2 1 4 5 9 9 7 3 4 7 6 3 4 4 2 2 3 6 7 9 10 11 11 10 10 10 11 12 12 12 12 13 12 12 11 9 8 6 4
2 4 3 3 4 4 5 8 7 7 6 1 4 1 6 5 2 1 2 2 3 5 7 9 11 12 12 12 11 11 12 12 13 13 13 13 13 13 13 12 10 8 8 6
3 3 7 7 6 4 3 7 7 8 7 2 3 2 6 3 1 1 3 3 5 7 9 11 12 12 12 12 11 12 14 14 14 14 13 13 13 12 11 11 11 11 9 8
6 3 5 6 6 5 2 4 6 8 6 6 3 7 6 4 3 3 4 5 7 9 11 12 13 13 12 13 13 14 15 15 15 15 14 13 13 12 13 13 13 12 10 10
6 3 4 1 1 7 6 4 4 6 7 8 2 4 4 4 3 3 5 7 9 11 13 14 13 13 13 14 15 15 15 15 15 15 14 12 14 14 13 14 14 14 14 13
4 4 3 3 6 8 3 3 5 4 6 8 8 4 6 2 3 5 7 9 11 13 15 14 13 14 15 15 15 15 15 16 15 15 15 15 15 15 14 13 14 13 13 14
3 5 2 5 5 3 5 5 6 6 5 5 8 4 7 1 4 6 9 11 13 14 14 14 15 15 15 16 16 16 16 16 16 15 15 16 15 15 15 15 15 14 14 14
2 3 4 7 7 4 2 4 3 3 4 5 8 6 6 2 6 8 10 13 14 14 14 14 15 15 15 16 16 16 16 16 16 16 16 16 16 16 16 16 15 15 15 15
4 3 7 7 6 3 0 0 2 6 6 8 8 11 8 6 8 10 12 14 14 14 14 15 15 15 15 15 15 15 16 15 16 16 16 16 16 16 16 16 16 16 15 15
4 1 2 3 2 3 3 2 2 4 5 9 11 13 12 9 9 11 13 14 14 14 15 15 16 15 15 15 15 15 15 15 15 15 16 16 16 16 16 16 16 16 16 16
2 2 3 4 3 4 7 6 5 5 5 9 12 11 6 6 9 11 13 14 14 15 16 16 16 16 16 15 15 14 15 15 15 15 16 16 16 17 17 17 17 16 16 16
3 3 6 6 1 8 9 7 7 5 7 10 12 11 9 11 12 13 14 13 13 15 16 17 17 15 15 15 14 14 14 15 15 15 15 16 16 17 17 17 17 17 16 16
5 5 5 7 4 8 4 4 2 6 10 9 10 11 11 11 12 13 10 10 13 15 16 16 16 16 15 14 14 14 14 14 15 15 15 16 16 17 17 17 17 16 14 14
5 6 7 7 10 10 5 5 3 6 11 6 8 10 10 11 13 7 3 9 13 15 15 14 15 16 15 14 14 14 15 14 15 15 15 16 16 17 17 17 16 14 13 13
5 6 9 8 11 10 3 7 2 5 6 1 5 9 10 11 11 8 10 13 14 14 13 14 14 15 14 13 13 14 15 15 15 15 15 16 16 17 17 17 15 13 11 12
7 7 9 10 11 7 7 8 5 6 8 6 6 8 9 10 10 12 14 13 14 14 15 14 14 14 13 13 13 14 14 15 14 15 16 16 16 16 16 14 13 12 10 10
7 7 6 6 7 3 10 7 5 6 5 5 6 7 8 9 11 12 13 13 14 15 15 15 14 14 13 13 12 14 14 14 14 14 15 16 15 14 12 13 12 11 10 9
6 6 5 5 6 3 8 8 5 5 7 6 6 7 7 10 11 12 12 13 14 15 14 14 14 15 14 12 12 14 14 14 13 14 15 14 15 14 12 12 11 9 8 6
5 2 7 8 9 7 8 10 9 8 8 7 6 6 8 10 11 12 11 12 14 14 14 14 15 15 15 14 13 13 13 13 13 14 14 13 13 12 11 9 8 7 6 6
9 5 8 11 11 9 10 11 11 9 8 8 7 7 7 9 11 11 11 12 13 14 13 13 14 14 15 15 14 13 12 12 13 14 13 12 11 11 10 9 7 7 6 4
9 9 11 10 7 7 7 6 7 8 9 8 8 8 7 8 9 11 11 11 13 14 14 14 15 15 15 15 14 13 12 12 13 12 11 10 9 9 8 8 7 2 3 2
Wind_Direction
211 235 226 14 331 326 302 283 92 104 106 88 102 101 92 88 90 90 88 85 82 78 74 66 61 57 56 47 37 25 16 10 354 351 339 333 324 315 310 311 327 324 322 326
215 196 34 341 290 246 246 248 128 122 133 132 124 110 102 94 90 91 97 95 89 87 79 65 55 48 41 35 24 15 13 8 354 354 334 324 320 312 318 325 329 329 321 307
295 16 0 283 261 247 243 277 149 150 149 156 147 133 130 120 117 114 107 99 89 78 65 48 29 21 17 14 5 0 354 345 347 338 328 333 325 316 330 334 334 337 330 317
283 359 295 282 270 281 266 5 209 164 183 180 216 177 151 144 141 135 129 121 107 81 34 7 356 355 354 351 347 344 339 334 330 321 327 330 325 328 333 327 333 329 328 328
346 339 303 286 323 314 5 3 223 199 222 195 205 221 147 166 166 153 152 144 118 356 341 339 339 339 338 336 335 334 333 328 324 317 309 304 309 317 317 321 318 314 315 314
4 1 332 335 321 328 176 206 198 216 230 223 176 244 146 160 161 162 176 194 263 305 319 327 329 330 329 329 330 331 334 329 325 317 311 301 300 301 303 304 305 302 302 294
106 99 58 337 268 180 235 254 250 236 237 168 138 229 100 103 108 227 233 240 276 301 313 322 327 330 327 325 326 328 330 328 324 318 314 308 301 295 287 286 290 291 292 288
331 82 40 18 354 329 334 303 313 311 313 341 164 113 106 108 126 253 260 277 287 303 321 325 328 326 323 321 322 325 326 323 321 319 317 312 304 295 294 296 296 290 283 282
350 45 75 44 33 332 322 354 346 296 290 290 128 124 138 165 203 233 261 279 295 313 319 321 325 324 323 320 320 321 321 320 320 318 315 306 306 306 303 299 285 279 276 272
348 311 86 81 190 59 27 355 309 316 325 311 291 177 145 170 242 256 279 296 309 316 319 324 324 323 324 320 319 319 318 318 316 314 315 314 313 306 302 296 296 292 286 277
337 299 104 102 36 21 29 33 347 330 340 321 322 39 90 39 311 302 305 312 319 322 324 324 322 324 322 320 319 319 318 316 315 315 315 312 308 306 301 295 290 287 283 281
354 311 76 95 90 37 46 19 351 334 348 315 307 42 111 7 309 302 309 319 324 323 322 322 322 323 321 320 320 318 318 315 314 315 312 309 307 304 301 299 298 294 286 279
4 292 216 170 169 158 68 47 21 340 292 315 315 3 117 270 284 294 311 323 324 323 322 320 321 321 319 318 317 316 315 314 315 313 310 308 307 306 305 304 300 296 290 282
299 5 347 9 20 9 254 59 343 306 326 326 330 327 327 310 299 310 322 323 321 319 320 320 320 318 317 314 314 314 313 314 312 311 309 307 307 307 306 303 301 296 291 286
280 8 14 6 334 287 289 267 272 316 339 323 327 318 326 335 324 319 317 319 319 319 320 320 319 317 315 315 315 312 311 311 311 309 308 308 308 307 304 302 300 298 293 287
309 316 278 241 234 268 267 253 248 273 301 311 311 316 351 325 309 313 320 322 319 320 321 320 317 317 316 316 313 311 310 311 311 308 306 307 305 303 301 300 297 295 292 289
221 257 283 297 234 270 262 226 227 264 306 310 309 325 332 311 317 320 320 318 320 321 319 317 317 315 316 314 313 310 310 310 307 304 303 303 303 302 301 300 297 295 293 291
245 257 274 295 276 275 51 101 224 284 300 302 295 304 314 312 315 302 298 311 318 318 316 316 315 314 315 316 314 312 309 306 303 303 303 306 308 306 303 300 296 294 292 289
242 246 275 286 289 295 140 174 228 293 303 308 302 308 310 317 306 305 40 321 316 316 315 312 311 313 314 313 314 312 308 305 304 304 308 309 310 306 303 300 299 298 293 290
193 229 260 272 292 299 62 127 123 278 278 19 298 304 312 316 309 342 352 329 322 319 315 314 312 310 310 315 316 311 307 306 306 308 309 308 306 304 303 302 302 299 293 289
218 226 252 274 281 287 111 135 188 276 349 355 310 304 306 313 311 319 322 321 320 317 315 314 311 310 314 318 315 307 305 304 307 308 306 306 304 305 304 306 305 302 296 292
272 269 255 273 277 300 133 163 239 317 331 305 301 299 304 307 308 312 315 317 318 319 318 318 314 313 317 319 315 308 306 307 308 305 304 306 307 307 308 309 307 305 300 295
252 291 301 278 294 59 183 214 243 283 285 291 292 300 306 306 310 315 317 318 320 321 320 317 314 313 317 321 318 310 309 310 308 304 303 305 308 309 308 308 308 308 305 301
217 205 261 266 269 251 227 234 247 252 263 276 282 290 300 305 312 316 319 320 321 322 321 319 317 316 318 322 319 312 310 312 308 305 304 305 307 309 314 312 309 312 313 310
293 228 251 258 273 270 240 235 242 244 243 252 259 273 293 304 309 316 317 319 321 321 320 319 316 316 318 321 319 317 318 318 312 308 306 305 306 311 313 313 315 319 333 338
256 242 249 267 278 251 254 217 221 229 233 240 253 269 285 298 306 312 314 318 319 320 320 318 319 320 320 321 319 320 323 320 313 309 307 305 306 309 312 313 315 243 267 319